Chanute, KS

1:30 AM CDT on September 16, 2019 (GMT -0500)
Chanute Martin Johnson

Weather History for KCNU - September, 2019

Change the Weather History Date:

Thursday, September 12, 2019

  Actual Average Record
Temperature  
Mean Temperature 80 °F 72 °F  
Max Temperature 90 °F 83 °F 103 °F (1909)
Min Temperature 70 °F 60 °F 39 °F (1940)
Degree Days  
Heating Degree Days 0 1  
Month to date heating degree days 0 3  
Since 1 July heating degree days 0 4  
Cooling Degree Days 15 7  
Month to date cooling degree days 195 110  
Year to date cooling degree days 1603 1414  
Growing Degree Days 30 (Base 50)    
Moisture  
Dew Point 69 °F    
Average Humidity 68    
Maximum Humidity 84    
Minimum Humidity 52    
Precipitation  
Precipitation 1.38 in 0.11 in 6.06 in (1898)
Month to date precipitation 1.38 1.33  
Year to date precipitation 45.36 31.82  
Sea Level Pressure  
Sea Level Pressure 30.03 in    
Wind  
Wind Speed 9 mph (South)    
Max Wind Speed 28 mph    
Max Gust Speed 42 mph    
Visibility 8 miles    
Events Fog , Rain , Thunderstorm    
T = Trace of Precipitation, MM = Missing Value Source: NWS Daily Summary

Daily Weather History Graph

Daily Weather History Graph

Search for Another Location

Airport or City:

Astronomy

Sep. 12, 2019 Rise Set
Actual Time 7:01 AM CDT 7:34 PM CDT
Civil Twilight 6:34 AM CDT 8:01 PM CDT
Nautical Twilight 6:03 AM CDT 8:32 PM CDT
Astronomical Twilight 5:31 AM CDT 9:03 PM CDT
Moon 7:17 PM CDT (9/12) 5:24 AM CDT (9/12)
Length of Visible Light 13h 26m
Length of Day
12h 33m
Waxing Gibbous, 98% of the Moon is Illuminated
Sep 12
Waxing Gibbous
Sep 13
Full
Sep 21
Last Quarter
Sep 28
New
Oct 5
First Quarter

Hourly Weather History & Observations

Time (CDT) Temp. Heat Index Dew Point Humidity Pressure Visibility Wind Dir Wind Speed Gust Speed Precip Events Conditions
12:52 AM 77.0 °F - 70.0 °F 79% 29.96 in 10.0 mi South 9.2 mph - N/A   Clear
1:52 AM 77.0 °F - 69.1 °F 76% 29.95 in 10.0 mi South 10.4 mph - N/A   Clear
2:52 AM 78.1 °F - 69.1 °F 74% 29.94 in 10.0 mi South 12.7 mph - N/A   Clear
3:52 AM 77.0 °F - 69.1 °F 76% 29.95 in 10.0 mi South 9.2 mph - N/A   Clear
4:52 AM 75.9 °F - 69.1 °F 79% 29.97 in 10.0 mi South 9.2 mph - N/A   Clear
7:52 AM 75.9 °F - 69.1 °F 79% 30.02 in 10.0 mi SSE 11.5 mph - N/A   Partly Cloudy
8:52 AM 78.1 °F - 68.0 °F 71% 30.01 in 10.0 mi South 13.8 mph 24.2 mph N/A   Clear
9:52 AM 82.0 °F 85.5 °F 69.1 °F 65% 30.00 in 10.0 mi South 15.0 mph 24.2 mph N/A   Overcast
10:52 AM 84.9 °F 88.2 °F 68.0 °F 57% 30.00 in 10.0 mi South 20.7 mph - N/A   Clear
11:52 AM 90.0 °F 94.5 °F 69.1 °F 50% 30.01 in 10.0 mi South 17.3 mph 28.8 mph N/A   Mostly Cloudy
2:52 PM 87.1 °F 92.8 °F 71.1 °F 59% 29.98 in 10.0 mi SSW 9.2 mph - N/A   Overcast
3:34 PM 86.0 °F 91.5 °F 71.1 °F 61% 30.02 in 10.0 mi WSW 10.4 mph - 0.00 in Thunderstorm Mostly Cloudy
3:49 PM 84.2 °F 89.6 °F 71.6 °F 66% 30.02 in 10.0 mi SW 10.4 mph - 0.00 in   Mostly Cloudy
3:52 PM 84.9 °F 90.1 °F 71.1 °F 63% 29.99 in 10.0 mi SW 9.2 mph - 0.00 in   Mostly Cloudy
4:52 PM 82.9 °F 87.5 °F 71.1 °F 67% 29.96 in 10.0 mi SSW 5.8 mph - 0.00 in   Scattered Clouds
5:52 PM 81.0 °F 86.2 °F 73.9 °F 79% 29.96 in 4.0 mi Calm Calm - 0.00 in Thunderstorm Unknown
6:36 PM 80.1 °F 84.2 °F 73.0 °F 79% 30.01 in 10.0 mi ENE 5.8 mph - 0.00 in Rain , Thunderstorm Light Rain
6:52 PM 78.1 °F - 73.9 °F 87% 29.99 in 6.0 mi NNE 10.4 mph - 0.05 in Rain , Thunderstorm Heavy Thunderstorms and Rain
7:05 PM 73.9 °F - 71.1 °F 91% 30.11 in 1.0 mi North - - 0.29 in Rain , Thunderstorm Heavy Thunderstorms and Rain
7:08 PM 71.1 °F - 68.0 °F 90% 30.10 in 0.5 mi West 12.7 mph 35.7 mph 0.63 in Fog , Rain , Thunderstorm Heavy Thunderstorms and Rain
7:15 PM 71.1 °F - 66.9 °F 87% 30.07 in 0.2 mi West 25.3 mph 41.4 mph 1.13 in Fog , Rain , Thunderstorm Heavy Thunderstorms and Rain
7:26 PM 72.0 °F - 64.0 °F 76% 30.01 in 1.0 mi North 9.2 mph 23.0 mph 1.27 in Rain , Thunderstorm Heavy Thunderstorms and Rain
7:30 PM 71.1 °F - 64.0 °F 78% 30.00 in 3.0 mi NNE 15.0 mph - 1.28 in Rain , Thunderstorm Thunderstorms and Rain
7:40 PM 70.0 °F - 66.0 °F 87% 30.03 in 10.0 mi Calm Calm - 1.29 in Rain , Thunderstorm Light Thunderstorms and Rain
7:52 PM 71.1 °F - 66.9 °F 87% 30.02 in 10.0 mi NNW 8.1 mph - 1.29 in Rain , Thunderstorm Light Thunderstorms and Rain
7:56 PM 71.1 °F - 66.9 °F 87% 30.06 in 10.0 mi NNW 4.6 mph - 0.00 in Thunderstorm Mostly Cloudy
8:11 PM 71.1 °F - 66.9 °F 87% 30.08 in 10.0 mi SSE 13.8 mph - 0.00 in   Mostly Cloudy
8:39 PM 71.1 °F - 66.0 °F 84% 30.07 in 10.0 mi ESE 5.8 mph - 0.00 in Rain Light Rain
8:52 PM 71.1 °F - 66.0 °F 84% 30.06 in 10.0 mi Calm Calm - 0.00 in Rain Light Rain
9:52 PM 70.0 °F - 66.9 °F 90% 30.08 in 10.0 mi Calm Calm - 0.02 in   Mostly Cloudy
10:48 PM 71.6 °F - 68.0 °F 88% 30.12 in 10.0 mi ESE 3.5 mph - N/A Rain , Thunderstorm Light Rain
10:52 PM 71.1 °F - 68.0 °F 90% 30.09 in 10.0 mi Calm Calm - 0.01 in Rain , Thunderstorm Light Rain
11:05 PM 71.1 °F - 68.0 °F 90% 30.12 in 10.0 mi Calm Calm - 0.01 in Rain Light Rain
11:52 PM 71.1 °F - 66.9 °F 87% 30.10 in 10.0 mi SSW 5.8 mph - 0.01 in   Overcast